User: anonymous   Login
Location: Homewood
(41.1836°S, 175.9581°E)
Time: 19:44:57
(UTC+00:00)
Language:

NOSS 3-3 (C) - Orbit

View from above orbital plane
View from above orbital plane
View from above satellite
View from above satellite

Ground track
Ground track

The orbit data is extracted from the following two-line orbital elements,

1 28541U 05004C   24164.98942074 0.00000000  00000-0  00000-0 0    02
2 28541  63.4016 149.0407 0492089   1.4200 358.5800 13.40448043    06
Epoch (UTC): 12 June 2024 23:44:45
Eccentricity: 0.0492089
inclination: 63.4016°
perigee height: 739 km
apogee height: 1476 km
right ascension of ascending node: 149.0407°
argument of perigee: 1.4200°
revolutions per day: 13.40448043
mean anomaly at epoch: 358.5800°
orbit number at epoch: 0

The dashed part of the orbit path shows where the satellite is in the earth's shadow,  

DLR